This is the latest recevied weather packets stored in our database for station/object KC8QDR-1. If no packets are shown the sender has not sent any weather packets the latest 10 day(s).
| Time | Temp. | Humidity | Pressure | Rain* | Wind** | Luminosity | Snow |
|---|---|---|---|---|---|---|---|
| 1777848085 | 15° C | 45% | 1018.2 hPa | 0 mm | 2.24 m/s, 189° | - | - |
| 1777847957 | 15° C | 45% | 1018.2 hPa | 0 mm | 2.24 m/s, 189° | - | - |
| 1777847925 | 15° C | 45% | 1018.2 hPa | 0 mm | 2.24 m/s, 189° | - | - |
| 1777847324 | 15° C | 45% | 1018.2 hPa | 0 mm | 2.24 m/s, 230° | - | - |
| 1777846725 | 15° C | 45% | 1018.2 hPa | 0 mm | 2.24 m/s, 179° | - | - |
| 1777846125 | 15.56° C | 45% | 1018.1 hPa | 0 mm | 0.45 m/s, 204° | - | - |
| 1777845525 | 15° C | 43% | 1018 hPa | 0 mm | 0.89 m/s, 191° | - | - |
| 1777844924 | 15.56° C | 44% | 1018.1 hPa | 0 mm | 1.34 m/s, 221° | - | - |
| 1777844326 | 15.56° C | 42% | 1017.9 hPa | 0 mm | 0 m/s | - | - |
| 1777843724 | 15.56° C | 44% | 1017.8 hPa | 0 mm | 0 m/s | - | - |
| 1777843125 | 16.11° C | 42% | 1017.7 hPa | 0 mm | 2.68 m/s, 214° | - | - |
| 1777842524 | 16.11° C | 41% | 1017.5 hPa | 0 mm | 3.58 m/s, 223° | - | - |
| 1777841925 | 16.67° C | 43% | 1017.5 hPa | 0 mm | 3.13 m/s, 217° | - | - |
| 1777841324 | 16.67° C | 39% | 1017.5 hPa | 0 mm | 3.58 m/s, 149° | - | - |
| 1777840725 | 16.67° C | 42% | 1017.4 hPa | 0 mm | 0 m/s | - | - |
| 1777840124 | 16.67° C | 42% | 1017.5 hPa | 0 mm | 0 m/s | - | - |
| 1777839525 | 16.11° C | 42% | 1017.5 hPa | 0 mm | 0 m/s | - | - |
| 1777838927 | 16.11° C | 38% | 1017.8 hPa | 0 mm | 0 m/s | - | - |
| 1777838325 | 16.11° C | 42% | 1018.2 hPa | 0 mm | 0 m/s | - | - |
| 1777837724 | 16.67° C | 40% | 1018.3 hPa | 0 mm | 0 m/s | - | - |
| 1777837125 | 16.11° C | 44% | 1018.8 hPa | 0 mm | 0 m/s | - | - |
| 1777836524 | 16.11° C | 45% | 1019.2 hPa | 0 mm | 0 m/s | - | - |
| 1777835926 | 16.67° C | 43% | 1019.6 hPa | 0 mm | 0 m/s | - | - |
| 1777835324 | 15.56° C | 39% | 1019.8 hPa | 0 mm | 0 m/s | - | - |
| 1777834725 | 16.67° C | 41% | 1020 hPa | 0 mm | 0 m/s | - | - |
* Rain latest hour (hover to see other rain measurements)
** Current wind speed in m/s (hover to see current wind gust speed)